TimeEST,TemperatureF,Dew PointF,Humidity,Sea Level PressureIn,VisibilityMPH,Wind Direction,Wind SpeedMPH,Gust SpeedMPH,PrecipitationIn,Events,Conditions,WindDirDegrees,DateUTC
12:15 AM,42.8,32.0,66,30.20,10.0,NNW,13.8,18.4,N/A,,Clear,330,2013-01-18 05:15:00
12:35 AM,42.8,32.0,66,30.20,10.0,NNW,5.8,-,N/A,,Clear,330,2013-01-18 05:35:00
12:55 AM,41.0,33.8,76,30.21,10.0,NNW,3.5,-,N/A,,Clear,340,2013-01-18 05:55:00
1:15 AM,41.0,33.8,76,30.21,10.0,NNW,5.8,-,N/A,,Clear,330,2013-01-18 06:15:00
1:35 AM,41.0,33.8,76,30.21,10.0,NNW,3.5,-,N/A,,Clear,330,2013-01-18 06:35:00
1:55 AM,41.0,33.8,76,30.22,10.0,NNW,3.5,-,N/A,,Clear,330,2013-01-18 06:55:00
2:15 AM,41.0,33.8,76,30.22,10.0,NW,3.5,-,N/A,,Clear,320,2013-01-18 07:15:00
2:35 AM,41.0,33.8,76,30.23,10.0,Calm,Calm,-,N/A,,Clear,0,2013-01-18 07:35:00
2:55 AM,41.0,33.8,76,30.22,10.0,NW,4.6,-,N/A,,Clear,320,2013-01-18 07:55:00
3:15 AM,41.0,33.8,76,30.23,10.0,NNW,4.6,-,N/A,,Clear,330,2013-01-18 08:15:00
3:35 AM,39.2,33.8,81,30.24,10.0,NNW,3.5,-,N/A,,Clear,340,2013-01-18 08:35:00
3:55 AM,39.2,33.8,81,30.24,10.0,Calm,Calm,-,N/A,,Clear,0,2013-01-18 08:55:00
4:15 AM,39.2,33.8,81,30.24,10.0,NNW,3.5,-,N/A,,Mostly Cloudy,330,2013-01-18 09:15:00
4:35 AM,39.2,33.8,81,30.24,10.0,NNW,3.5,-,N/A,,Overcast,340,2013-01-18 09:35:00
4:55 AM,39.2,33.8,81,30.24,10.0,Calm,Calm,-,N/A,,Mostly Cloudy,0,2013-01-18 09:55:00
5:15 AM,39.2,33.8,81,30.25,10.0,Calm,Calm,-,N/A,,Scattered Clouds,0,2013-01-18 10:15:00
5:55 AM,35.6,33.8,93,30.26,10.0,Calm,Calm,-,N/A,,Clear,0,2013-01-18 10:55:00
6:15 AM,35.6,33.8,93,30.27,10.0,Calm,Calm,-,N/A,,Clear,0,2013-01-18 11:15:00
6:35 AM,35.6,33.8,93,30.28,10.0,Calm,Calm,-,N/A,,Mostly Cloudy,0,2013-01-18 11:35:00
6:55 AM,35.6,35.6,100,30.29,10.0,Calm,Calm,-,N/A,,Overcast,0,2013-01-18 11:55:00
7:15 AM,37.4,35.6,93,30.29,10.0,Calm,Calm,-,N/A,,Overcast,0,2013-01-18 12:15:00
7:35 AM,37.4,35.6,93,30.30,10.0,Calm,Calm,-,N/A,,Overcast,0,2013-01-18 12:35:00
7:55 AM,39.2,35.6,87,30.31,10.0,Calm,Calm,-,N/A,,Overcast,0,2013-01-18 12:55:00
8:15 AM,41.0,35.6,81,30.31,10.0,Calm,Calm,-,N/A,,Overcast,0,2013-01-18 13:15:00
8:35 AM,41.0,37.4,87,30.31,10.0,North,4.6,-,N/A,,Overcast,10,2013-01-18 13:35:00
8:55 AM,42.8,37.4,81,30.32,10.0,NNE,3.5,-,N/A,,Overcast,20,2013-01-18 13:55:00
9:15 AM,44.6,37.4,76,30.32,10.0,NE,5.8,-,N/A,,Overcast,40,2013-01-18 14:15:00
9:35 AM,46.4,39.2,76,30.33,10.0,North,4.6,-,N/A,,Overcast,10,2013-01-18 14:35:00
9:55 AM,48.2,41.0,76,30.33,10.0,NNE,6.9,-,N/A,,Mostly Cloudy,30,2013-01-18 14:55:00
10:15 AM,51.8,41.0,67,30.33,10.0,NNE,11.5,-,N/A,,Clear,20,2013-01-18 15:15:00
10:35 AM,51.8,42.8,71,30.34,10.0,NNE,10.4,16.1,N/A,,Mostly Cloudy,30,2013-01-18 15:35:00
10:55 AM,53.6,42.8,67,30.33,10.0,NE,10.4,-,N/A,,Scattered Clouds,50,2013-01-18 15:55:00
11:15 AM,55.4,44.6,67,30.32,10.0,ENE,12.7,21.9,N/A,,Scattered Clouds,60,2013-01-18 16:15:00
11:35 AM,59.0,44.6,59,30.31,10.0,NE,10.4,23.0,N/A,,Scattered Clouds,40,2013-01-18 16:35:00
11:55 AM,59.0,44.6,59,30.30,10.0,ENE,12.7,21.9,N/A,,Scattered Clouds,60,2013-01-18 16:55:00
12:15 PM,60.8,46.4,59,30.30,10.0,ENE,13.8,19.6,N/A,,Mostly Cloudy,60,2013-01-18 17:15:00
12:35 PM,60.8,44.6,55,30.29,10.0,NE,10.4,18.4,N/A,,Overcast,50,2013-01-18 17:35:00
12:55 PM,60.8,46.4,59,30.28,10.0,NE,12.7,19.6,N/A,,Overcast,50,2013-01-18 17:55:00
1:15 PM,60.8,46.4,59,30.28,10.0,NE,15.0,21.9,N/A,,Overcast,50,2013-01-18 18:15:00
1:35 PM,60.8,46.4,59,30.27,10.0,ENE,11.5,23.0,N/A,,Overcast,60,2013-01-18 18:35:00
1:55 PM,60.8,46.4,59,30.27,10.0,NE,12.7,19.6,N/A,,Overcast,50,2013-01-18 18:55:00
2:15 PM,62.6,46.4,55,30.27,10.0,NE,10.4,-,N/A,,Overcast,50,2013-01-18 19:15:00
2:35 PM,62.6,46.4,55,30.26,10.0,NE,9.2,-,N/A,,Overcast,50,2013-01-18 19:35:00
2:55 PM,62.6,46.4,55,30.26,10.0,NE,15.0,19.6,N/A,,Overcast,50,2013-01-18 19:55:00
3:15 PM,62.6,46.4,55,30.26,10.0,NE,10.4,18.4,N/A,,Overcast,40,2013-01-18 20:15:00
3:35 PM,62.6,46.4,55,30.27,10.0,ENE,11.5,20.7,N/A,,Overcast,60,2013-01-18 20:35:00
3:55 PM,62.6,46.4,55,30.27,10.0,ENE,15.0,20.7,N/A,,Overcast,60,2013-01-18 20:55:00
4:15 PM,62.6,46.4,55,30.27,10.0,ENE,16.1,24.2,N/A,,Overcast,60,2013-01-18 21:15:00
4:35 PM,62.6,46.4,55,30.28,10.0,NE,12.7,23.0,N/A,,Overcast,50,2013-01-18 21:35:00
4:55 PM,60.8,46.4,59,30.29,10.0,NE,16.1,19.6,N/A,,Overcast,50,2013-01-18 21:55:00
5:15 PM,60.8,46.4,59,30.30,10.0,ENE,15.0,23.0,N/A,,Overcast,60,2013-01-18 22:15:00
5:35 PM,60.8,46.4,59,30.30,10.0,ENE,16.1,24.2,N/A,,Overcast,60,2013-01-18 22:35:00
5:55 PM,59.0,46.4,63,30.31,10.0,NE,12.7,18.4,N/A,,Overcast,50,2013-01-18 22:55:00
6:15 PM,59.0,46.4,63,30.32,10.0,NE,10.4,18.4,N/A,,Overcast,50,2013-01-18 23:15:00
6:35 PM,57.2,46.4,67,30.32,10.0,NE,9.2,16.1,N/A,,Overcast,50,2013-01-18 23:35:00
6:55 PM,55.4,46.4,72,30.33,10.0,NE,11.5,19.6,N/A,,Overcast,40,2013-01-18 23:55:00
7:15 PM,55.4,44.6,67,30.33,10.0,NE,15.0,20.7,N/A,,Overcast,40,2013-01-19 00:15:00
7:35 PM,55.4,44.6,67,30.34,10.0,NE,9.2,17.3,N/A,,Overcast,40,2013-01-19 00:35:00
7:55 PM,53.6,44.6,72,30.35,10.0,NE,11.5,20.7,N/A,,Mostly Cloudy,50,2013-01-19 00:55:00
8:15 PM,53.6,44.6,72,30.35,10.0,NNE,10.4,16.1,N/A,,Mostly Cloudy,30,2013-01-19 01:15:00
8:35 PM,53.6,42.8,67,30.35,10.0,NE,9.2,-,N/A,,Overcast,50,2013-01-19 01:35:00
8:55 PM,53.6,42.8,67,30.35,10.0,NE,6.9,-,N/A,,Overcast,40,2013-01-19 01:55:00
9:15 PM,51.8,42.8,71,30.35,10.0,NE,11.5,17.3,N/A,,Overcast,40,2013-01-19 02:15:00
9:35 PM,51.8,42.8,71,30.35,10.0,NNE,8.1,-,N/A,,Overcast,30,2013-01-19 02:35:00
9:55 PM,51.8,42.8,71,30.35,10.0,NNE,10.4,-,N/A,,Mostly Cloudy,30,2013-01-19 02:55:00
10:15 PM,50.0,41.0,71,30.34,10.0,NNE,9.2,-,N/A,,Mostly Cloudy,30,2013-01-19 03:15:00
10:35 PM,50.0,41.0,71,30.34,10.0,NNE,8.1,-,N/A,,Scattered Clouds,30,2013-01-19 03:35:00
10:55 PM,50.0,41.0,71,30.34,10.0,NNE,5.8,-,N/A,,Mostly Cloudy,30,2013-01-19 03:55:00
11:15 PM,50.0,41.0,71,30.33,10.0,NNE,8.1,-,N/A,,Overcast,30,2013-01-19 04:15:00
11:35 PM,48.2,41.0,76,30.32,10.0,NNE,8.1,-,N/A,,Scattered Clouds,30,2013-01-19 04:35:00
11:55 PM,48.2,41.0,76,30.32,10.0,NNE,8.1,-,N/A,,Clear,30,2013-01-19 04:55:00